EZY31FB LIPX-EGCC

Flight info

Callsign EZY31FB
Flight time 1h 54m
Altitude 38000
Route LEGLO DCT ABESI DCT UTAVO DCT HOC DCT LUL DCT RLP DCT ROTSI DCT KOTUN DCT AMAXA DCT VESAN DCT RATUK DCT SOVAT L613 SANDY UN57 WELIN T420 ELVOS
Aircraft A320/M-SDE2E3FGHIJ1RWXYZ/LB1

Departure

Time 2026-05-06 17:08
Airport Verona Villafranca Valerio Catullo Airport (LIPX)

Arrival

Time 2026-05-06 19:02
Airport Manchester Airport (EGCC)
Time Latitude Longitude Altitude Speed Heading
2026-05-06 16:38 45.40164 10.90405 243 ft 0 kts 180°
2026-05-06 16:40 45.40172 10.90405 243 ft 0 kts 180°
2026-05-06 16:59 45.40178 10.90405 242 ft 4 kts 180°
2026-05-06 16:59 45.40205 10.90406 242 ft 4 kts 181°
2026-05-06 16:59 45.40230 10.90406 242 ft 2 kts 181°
2026-05-06 17:00 45.40251 10.90410 242 ft 4 kts 215°
2026-05-06 17:00 45.40268 10.90432 242 ft 2 kts 226°
2026-05-06 17:00 45.40255 10.90406 242 ft 4 kts 245°
2026-05-06 17:00 45.40261 10.90375 242 ft 4 kts 302°
2026-05-06 17:01 45.40278 10.90350 242 ft 4 kts 315°
2026-05-06 17:01 45.40284 10.90342 242 ft 0 kts 315°
2026-05-06 17:03 45.40286 10.90339 242 ft 1 kts 315°
2026-05-06 17:03 45.40301 10.90319 242 ft 5 kts 315°
2026-05-06 17:03 45.40333 10.90255 242 ft 8 kts 284°
2026-05-06 17:04 45.40323 10.90179 243 ft 9 kts 255°
2026-05-06 17:04 45.40302 10.90067 245 ft 15 kts 255°
2026-05-06 17:04 45.40271 10.89902 246 ft 19 kts 255°
2026-05-06 17:04 45.40182 10.89743 246 ft 25 kts 225°
2026-05-06 17:05 45.40040 10.89536 244 ft 35 kts 226°
2026-05-06 17:05 45.39849 10.89262 240 ft 41 kts 225°
2026-05-06 17:05 45.39646 10.88966 240 ft 42 kts 226°
2026-05-06 17:05 45.39438 10.88663 238 ft 44 kts 225°
2026-05-06 17:06 45.39222 10.88349 233 ft 45 kts 225°
2026-05-06 17:06 45.39003 10.88030 233 ft 45 kts 226°
2026-05-06 17:06 45.38838 10.87831 231 ft 21 kts 198°
2026-05-06 17:06 45.38723 10.87762 230 ft 12 kts 225°
2026-05-06 17:07 45.38722 10.87669 230 ft 10 kts 310°
2026-05-06 17:07 45.38769 10.87687 230 ft 8 kts 46°
2026-05-06 17:07 45.38904 10.87885 233 ft 61 kts 46°
2026-05-06 17:07 45.39357 10.88542 238 ft 122 kts 45°
2026-05-06 17:08 45.40058 10.89576 318 ft 161 kts 49°
2026-05-06 17:08 45.40815 10.90698 1063 ft 156 kts 49°
2026-05-06 17:08 45.41407 10.92017 1534 ft 167 kts 77°
2026-05-06 17:08 45.41355 10.93723 1981 ft 184 kts 109°
2026-05-06 17:09 45.40599 10.95222 2424 ft 199 kts 145°
2026-05-06 17:09 45.39287 10.95767 3132 ft 200 kts 184°
2026-05-06 17:09 45.37982 10.95047 3614 ft 214 kts 221°
2026-05-06 17:09 45.37169 10.93172 4088 ft 236 kts 246°
2026-05-06 17:10 45.36535 10.90946 4745 ft 250 kts 247°
2026-05-06 17:10 45.35935 10.88601 5632 ft 256 kts 253°
2026-05-06 17:10 45.35995 10.86054 6550 ft 266 kts 283°
2026-05-06 17:10 45.36660 10.83566 7402 ft 270 kts 287°
2026-05-06 17:11 45.37354 10.81077 8334 ft 272 kts 288°
2026-05-06 17:11 45.38078 10.78604 9139 ft 278 kts 289°
2026-05-06 17:11 45.38835 10.76069 10019 ft 279 kts 289°
2026-05-06 17:11 45.39578 10.73518 10811 ft 282 kts 288°
2026-05-06 17:12 45.40324 10.70871 11324 ft 296 kts 287°
2026-05-06 17:12 45.41083 10.68060 11721 ft 313 kts 287°
2026-05-06 17:12 45.41865 10.65121 12337 ft 321 kts 287°
2026-05-06 17:12 45.42659 10.62135 13036 ft 327 kts 287°
2026-05-06 17:13 45.43479 10.59062 13607 ft 335 kts 287°
2026-05-06 17:13 45.44333 10.55998 14235 ft 341 kts 291°
2026-05-06 17:13 45.45703 10.53197 14911 ft 351 kts 308°
2026-05-06 17:13 45.47396 10.50675 15601 ft 353 kts 308°
2026-05-06 17:14 45.49107 10.48157 16287 ft 355 kts 309°
2026-05-06 17:14 45.50839 10.45619 16936 ft 359 kts 308°
2026-05-06 17:14 45.52588 10.43062 17604 ft 362 kts 308°
2026-05-06 17:14 45.54339 10.40473 18244 ft 364 kts 307°
2026-05-06 17:15 45.56039 10.37856 18802 ft 365 kts 306°
2026-05-06 17:15 45.57749 10.35163 19370 ft 368 kts 305°
2026-05-06 17:15 45.59464 10.32438 19929 ft 370 kts 305°
2026-05-06 17:15 45.61191 10.29689 20500 ft 373 kts 305°
2026-05-06 17:16 45.62932 10.26924 21050 ft 376 kts 305°
2026-05-06 17:16 45.64687 10.24147 21546 ft 379 kts 304°
2026-05-06 17:16 45.66466 10.21339 22101 ft 382 kts 304°
2026-05-06 17:16 45.68254 10.18523 22678 ft 384 kts 304°
2026-05-06 17:17 45.70027 10.15728 23212 ft 385 kts 304°
2026-05-06 17:17 45.71831 10.12877 23688 ft 388 kts 304°
2026-05-06 17:17 45.73651 10.09996 24125 ft 392 kts 303°
2026-05-06 17:17 45.75486 10.07082 24513 ft 395 kts 303°
2026-05-06 17:18 45.77334 10.04150 24907 ft 398 kts 303°
2026-05-06 17:18 45.79192 10.01202 25310 ft 400 kts 303°
2026-05-06 17:18 45.81061 9.98233 25729 ft 403 kts 303°
2026-05-06 17:18 45.82940 9.95242 26134 ft 404 kts 303°
2026-05-06 17:19 45.84828 9.92240 26530 ft 407 kts 302°
2026-05-06 17:19 45.86698 9.89258 26885 ft 408 kts 303°
2026-05-06 17:19 45.88607 9.86207 27211 ft 413 kts 303°
2026-05-06 17:19 45.90535 9.83123 27544 ft 417 kts 303°
2026-05-06 17:20 45.92479 9.80020 27926 ft 419 kts 303°
2026-05-06 17:20 45.94435 9.76900 28313 ft 421 kts 303°
2026-05-06 17:20 45.96398 9.73762 28638 ft 423 kts 303°
2026-05-06 17:20 45.98371 9.70601 28936 ft 426 kts 303°
2026-05-06 17:21 46.00352 9.67415 29295 ft 429 kts 302°
2026-05-06 17:21 46.02317 9.64248 29630 ft 431 kts 302°
2026-05-06 17:21 46.04320 9.61021 29992 ft 434 kts 302°
2026-05-06 17:21 46.06334 9.57772 30277 ft 436 kts 302°
2026-05-06 17:22 46.08355 9.54509 30600 ft 437 kts 302°
2026-05-06 17:22 46.10382 9.51231 30854 ft 438 kts 302°
2026-05-06 17:22 46.12409 9.47947 31106 ft 439 kts 302°
2026-05-06 17:22 46.14442 9.44646 31382 ft 440 kts 302°
2026-05-06 17:23 46.16475 9.41351 31728 ft 440 kts 302°
2026-05-06 17:23 46.18483 9.38100 32119 ft 439 kts 302°
2026-05-06 17:23 46.20514 9.34810 32502 ft 438 kts 302°
2026-05-06 17:23 46.22540 9.31526 32907 ft 438 kts 302°
2026-05-06 17:24 46.24557 9.28244 33292 ft 436 kts 302°
2026-05-06 17:24 46.26564 9.24966 33656 ft 435 kts 302°
2026-05-06 17:24 46.28562 9.21695 34029 ft 434 kts 302°
2026-05-06 17:24 46.30555 9.18421 34325 ft 433 kts 303°
2026-05-06 17:25 46.32537 9.15141 34601 ft 432 kts 303°
2026-05-06 17:25 46.34486 9.11904 34849 ft 433 kts 303°
2026-05-06 17:25 46.36456 9.08619 35065 ft 433 kts 303°
2026-05-06 17:25 46.38428 9.05323 35300 ft 433 kts 303°
2026-05-06 17:26 46.40405 9.02030 35598 ft 433 kts 305°
2026-05-06 17:26 46.42603 8.98992 35847 ft 441 kts 313°
2026-05-06 17:26 46.44940 8.96108 36116 ft 441 kts 313°
2026-05-06 17:26 46.47271 8.93223 36375 ft 441 kts 313°
2026-05-06 17:27 46.49565 8.90373 36607 ft 440 kts 313°
2026-05-06 17:27 46.51892 8.87477 36832 ft 441 kts 313°
2026-05-06 17:27 46.54219 8.84574 37024 ft 441 kts 313°
2026-05-06 17:27 46.56549 8.81671 37273 ft 441 kts 314°
2026-05-06 17:28 46.58877 8.78769 37512 ft 441 kts 314°
2026-05-06 17:28 46.61200 8.75863 37708 ft 441 kts 314°
2026-05-06 17:28 46.63523 8.72952 37884 ft 442 kts 314°
2026-05-06 17:29 46.68146 8.67149 37917 ft 442 kts 315°
2026-05-06 17:29 46.72795 8.61298 37919 ft 442 kts 314°
2026-05-06 17:30 46.77441 8.55446 37946 ft 441 kts 314°
2026-05-06 17:30 46.82089 8.49580 37918 ft 442 kts 314°
2026-05-06 17:31 46.86738 8.43695 37919 ft 442 kts 314°
2026-05-06 17:31 46.91358 8.37836 37923 ft 443 kts 314°
2026-05-06 17:32 46.96016 8.31911 37903 ft 444 kts 314°
2026-05-06 17:32 47.00676 8.25970 37902 ft 444 kts 314°
2026-05-06 17:33 47.05327 8.20019 37932 ft 444 kts 314°
2026-05-06 17:33 47.09950 8.14088 37923 ft 444 kts 315°
2026-05-06 17:34 47.14604 8.08106 37943 ft 445 kts 314°
2026-05-06 17:34 47.19259 8.02114 37930 ft 445 kts 314°
2026-05-06 17:35 47.23914 7.96111 37925 ft 445 kts 314°
2026-05-06 17:35 47.28534 7.90130 37919 ft 445 kts 314°
2026-05-06 17:36 47.35507 7.81085 37920 ft 445 kts 314°
2026-05-06 17:36 47.39371 7.76064 37912 ft 445 kts 314°
2026-05-06 17:37 47.43917 7.69885 37926 ft 441 kts 307°
2026-05-06 17:37 47.46244 7.65042 37924 ft 434 kts 294°
2026-05-06 17:37 47.47486 7.61012 37922 ft 429 kts 285°
2026-05-06 17:38 47.49007 7.52543 37920 ft 426 kts 280°
2026-05-06 17:38 47.50189 7.45466 37914 ft 427 kts 280°
2026-05-06 17:39 47.51839 7.35546 37908 ft 427 kts 280°
2026-05-06 17:39 47.53249 7.27002 37899 ft 428 kts 280°
2026-05-06 17:40 47.54415 7.19895 37899 ft 428 kts 280°
2026-05-06 17:40 47.55816 7.11336 37922 ft 428 kts 280°
2026-05-06 17:41 47.57438 7.01370 37906 ft 428 kts 280°
2026-05-06 17:41 47.58825 6.92786 37899 ft 429 kts 280°
2026-05-06 17:42 47.59975 6.85641 37906 ft 429 kts 280°
2026-05-06 17:42 47.61353 6.77033 37901 ft 430 kts 280°
2026-05-06 17:43 47.62733 6.68408 37913 ft 430 kts 280°
2026-05-06 17:43 47.64095 6.59827 37911 ft 431 kts 280°
2026-05-06 17:44 47.65457 6.51161 37908 ft 432 kts 280°
2026-05-06 17:44 47.66817 6.42481 37909 ft 432 kts 280°
2026-05-06 17:45 47.68173 6.33792 37913 ft 432 kts 280°
2026-05-06 17:45 47.69613 6.25182 37924 ft 434 kts 283°
2026-05-06 17:46 47.71445 6.16628 37919 ft 435 kts 285°
2026-05-06 17:46 47.73383 6.08102 37909 ft 435 kts 285°
2026-05-06 17:47 47.75237 5.99542 37918 ft 435 kts 284°
2026-05-06 17:47 47.77017 5.91011 37911 ft 435 kts 284°
2026-05-06 17:48 47.78802 5.82412 37929 ft 435 kts 284°
2026-05-06 17:48 47.80582 5.73812 37925 ft 435 kts 284°
2026-05-06 17:49 47.82366 5.65202 37924 ft 435 kts 284°
2026-05-06 17:49 47.84143 5.56654 37925 ft 435 kts 284°
2026-05-06 17:50 47.85918 5.48033 37940 ft 435 kts 284°
2026-05-06 17:50 47.87687 5.39410 37935 ft 435 kts 284°
2026-05-06 17:51 47.89445 5.30783 37933 ft 435 kts 285°
2026-05-06 17:51 47.92101 5.22737 37925 ft 440 kts 304°
2026-05-06 17:52 47.96156 5.15850 37915 ft 442 kts 310°
2026-05-06 17:52 48.00294 5.09045 37927 ft 443 kts 309°
2026-05-06 17:53 48.04420 5.02211 37920 ft 443 kts 310°
2026-05-06 17:53 48.08521 4.95413 37918 ft 443 kts 310°
2026-05-06 17:54 48.12649 4.88557 37933 ft 444 kts 310°
2026-05-06 17:54 48.16774 4.81678 37933 ft 444 kts 309°
2026-05-06 17:55 48.20894 4.74780 37939 ft 444 kts 310°
2026-05-06 17:55 48.24986 4.67925 37948 ft 444 kts 310°
2026-05-06 17:56 48.29105 4.61010 37946 ft 444 kts 310°
2026-05-06 17:56 48.33223 4.54092 37939 ft 444 kts 310°
2026-05-06 17:57 48.37330 4.47167 37942 ft 443 kts 310°
2026-05-06 17:57 48.41398 4.40274 37938 ft 443 kts 310°
2026-05-06 17:58 48.45489 4.33335 37925 ft 443 kts 310°
2026-05-06 17:58 48.49571 4.26382 37943 ft 443 kts 310°
2026-05-06 17:59 48.53650 4.19421 37939 ft 442 kts 310°
2026-05-06 17:59 48.57691 4.12513 37939 ft 442 kts 310°
2026-05-06 18:00 48.61751 4.05554 37939 ft 441 kts 310°
2026-05-06 18:00 48.65808 3.98588 37933 ft 441 kts 309°
2026-05-06 18:01 48.69850 3.91607 37938 ft 441 kts 309°
2026-05-06 18:01 48.74209 3.85183 37929 ft 443 kts 323°
2026-05-06 18:02 48.79211 3.79741 37927 ft 443 kts 322°
2026-05-06 18:02 48.84211 3.74280 37922 ft 443 kts 322°
2026-05-06 18:03 48.89206 3.68808 37915 ft 443 kts 322°
2026-05-06 18:03 48.94166 3.63357 37924 ft 443 kts 322°
2026-05-06 18:04 48.99157 3.57853 37924 ft 443 kts 322°
2026-05-06 18:04 49.04146 3.52344 37926 ft 443 kts 322°
2026-05-06 18:05 49.09134 3.46823 37934 ft 443 kts 322°
2026-05-06 18:05 49.14081 3.41343 37938 ft 442 kts 322°
2026-05-06 18:06 49.19053 3.35809 37941 ft 442 kts 322°
2026-05-06 18:06 49.24016 3.30269 37934 ft 442 kts 322°
2026-05-06 18:07 49.28983 3.24717 37932 ft 442 kts 322°
2026-05-06 18:07 49.33942 3.19153 37933 ft 442 kts 322°
2026-05-06 18:08 49.38868 3.13618 37937 ft 442 kts 322°
2026-05-06 18:08 49.43821 3.08041 37941 ft 442 kts 322°
2026-05-06 18:09 49.48771 3.02460 37938 ft 441 kts 322°
2026-05-06 18:09 49.53711 2.96852 37939 ft 441 kts 322°
2026-05-06 18:10 49.58608 2.91276 37940 ft 441 kts 322°
2026-05-06 18:10 49.63542 2.85666 37939 ft 440 kts 322°
2026-05-06 18:11 49.68467 2.80050 37944 ft 440 kts 322°
2026-05-06 18:11 49.73389 2.74418 37942 ft 440 kts 322°
2026-05-06 18:12 49.78266 2.68813 37946 ft 440 kts 322°
2026-05-06 18:12 49.83222 2.63271 37941 ft 439 kts 323°
2026-05-06 18:13 49.88212 2.57805 37941 ft 439 kts 323°
2026-05-06 18:13 49.93182 2.52305 37960 ft 439 kts 323°
2026-05-06 18:14 49.98131 2.46763 37961 ft 438 kts 322°
2026-05-06 18:14 50.03045 2.41255 37954 ft 438 kts 323°
2026-05-06 18:15 50.07984 2.35709 37951 ft 438 kts 323°
2026-05-06 18:15 50.12922 2.30154 37949 ft 438 kts 322°
2026-05-06 18:16 50.17824 2.24627 37959 ft 437 kts 322°
2026-05-06 18:16 50.22749 2.19059 37960 ft 437 kts 322°
2026-05-06 18:17 50.27666 2.13486 37957 ft 436 kts 322°
2026-05-06 18:17 50.32581 2.07913 37958 ft 436 kts 322°
2026-05-06 18:18 50.37482 2.02314 37960 ft 436 kts 321°
2026-05-06 18:18 50.42116 1.96322 37965 ft 435 kts 317°
2026-05-06 18:19 50.46606 1.89977 37962 ft 434 kts 316°
2026-05-06 18:19 50.51102 1.83650 37986 ft 434 kts 317°
2026-05-06 18:20 50.55615 1.77450 37987 ft 433 kts 317°
2026-05-06 18:20 50.60166 1.71245 37985 ft 433 kts 317°
2026-05-06 18:21 50.64702 1.65025 37981 ft 432 kts 317°
2026-05-06 18:21 50.69226 1.58790 37980 ft 432 kts 317°
2026-05-06 18:22 50.73709 1.52570 37975 ft 432 kts 317°
2026-05-06 18:22 50.78216 1.46294 37974 ft 432 kts 317°
2026-05-06 18:23 50.82721 1.40014 37986 ft 432 kts 317°
2026-05-06 18:23 50.87225 1.33731 37997 ft 432 kts 317°
2026-05-06 18:24 50.91725 1.27433 37996 ft 432 kts 317°
2026-05-06 18:24 50.96191 1.21158 37999 ft 432 kts 317°
2026-05-06 18:25 51.00687 1.14843 38001 ft 432 kts 316°
2026-05-06 18:25 51.05172 1.08507 38006 ft 432 kts 316°
2026-05-06 18:26 51.09590 1.02049 38006 ft 431 kts 314°
2026-05-06 18:26 51.13863 0.95353 38005 ft 431 kts 313°
2026-05-06 18:27 51.18090 0.88668 37991 ft 431 kts 314°
2026-05-06 18:27 51.22373 0.81974 37991 ft 431 kts 314°
2026-05-06 18:28 51.26663 0.75276 37990 ft 431 kts 314°
2026-05-06 18:28 51.30950 0.68569 37989 ft 431 kts 314°
2026-05-06 18:29 51.35234 0.61850 38019 ft 431 kts 314°
2026-05-06 18:29 51.39481 0.55155 38013 ft 431 kts 314°
2026-05-06 18:30 51.43750 0.48404 38011 ft 431 kts 314°
2026-05-06 18:30 51.48016 0.41641 38017 ft 431 kts 314°
2026-05-06 18:31 51.52271 0.34882 38012 ft 430 kts 314°
2026-05-06 18:31 51.56517 0.28110 38016 ft 430 kts 314°
2026-05-06 18:32 51.60737 0.21373 38021 ft 430 kts 314°
2026-05-06 18:32 51.64978 0.14595 38015 ft 429 kts 313°
2026-05-06 18:33 51.69174 0.07758 38015 ft 429 kts 313°
2026-05-06 18:33 51.73340 0.00868 38011 ft 429 kts 313°
2026-05-06 18:34 51.77506 -0.06031 38068 ft 429 kts 313°
2026-05-06 18:34 51.81650 -0.12873 38069 ft 429 kts 313°
2026-05-06 18:35 51.85815 -0.19768 38019 ft 428 kts 313°
2026-05-06 18:35 51.89968 -0.26671 38015 ft 428 kts 313°
2026-05-06 18:36 51.94114 -0.33592 38013 ft 428 kts 313°
2026-05-06 18:36 51.98259 -0.40518 38010 ft 428 kts 313°
2026-05-06 18:37 52.00306 -0.43943 37763 ft 428 kts 313°
2026-05-06 18:37 52.02375 -0.47410 37492 ft 427 kts 313°
2026-05-06 18:37 52.04436 -0.50866 37185 ft 424 kts 312°
2026-05-06 18:37 52.06479 -0.54297 36678 ft 421 kts 312°
2026-05-06 18:38 52.08498 -0.57701 36164 ft 417 kts 312°
2026-05-06 18:38 52.10509 -0.61095 35673 ft 414 kts 312°
2026-05-06 18:38 52.12500 -0.64463 35161 ft 412 kts 311°
2026-05-06 18:38 52.14478 -0.67811 34646 ft 410 kts 311°
2026-05-06 18:39 52.16449 -0.71156 34103 ft 408 kts 311°
2026-05-06 18:39 52.18384 -0.74444 33521 ft 406 kts 311°
2026-05-06 18:39 52.20333 -0.77752 32983 ft 403 kts 311°
2026-05-06 18:40 52.24245 -0.84214 31894 ft 399 kts 317°
2026-05-06 18:40 52.26467 -0.86945 31302 ft 402 kts 325°
2026-05-06 18:40 52.28865 -0.89325 30719 ft 404 kts 326°
2026-05-06 18:40 52.31270 -0.91705 30083 ft 405 kts 326°
2026-05-06 18:41 52.33647 -0.94067 29401 ft 406 kts 326°
2026-05-06 18:41 52.36064 -0.96476 28766 ft 408 kts 326°
2026-05-06 18:41 52.38489 -0.98900 28090 ft 409 kts 326°
2026-05-06 18:41 52.40909 -1.01322 27427 ft 407 kts 326°
2026-05-06 18:42 52.43317 -1.03736 26765 ft 405 kts 326°
2026-05-06 18:42 52.45711 -1.06143 26117 ft 405 kts 326°
2026-05-06 18:42 52.48181 -1.08632 25460 ft 425 kts 327°
2026-05-06 18:42 52.50709 -1.11173 24778 ft 426 kts 327°
2026-05-06 18:43 52.53233 -1.13710 24105 ft 423 kts 327°
2026-05-06 18:43 52.55697 -1.16191 23427 ft 419 kts 327°
2026-05-06 18:43 52.58171 -1.18685 22731 ft 415 kts 327°
2026-05-06 18:43 52.60606 -1.21143 22144 ft 408 kts 327°
2026-05-06 18:44 52.63007 -1.23572 21570 ft 402 kts 327°
2026-05-06 18:44 52.65369 -1.25968 21030 ft 396 kts 327°
2026-05-06 18:44 52.67699 -1.28330 20503 ft 391 kts 327°
2026-05-06 18:44 52.70004 -1.30669 19997 ft 387 kts 327°
2026-05-06 18:45 52.72256 -1.32957 19441 ft 384 kts 327°
2026-05-06 18:45 52.74525 -1.35268 18932 ft 381 kts 327°
2026-05-06 18:45 52.76771 -1.37563 18376 ft 379 kts 327°
2026-05-06 18:45 52.79004 -1.39845 17765 ft 376 kts 327°
2026-05-06 18:46 52.81216 -1.42107 17324 ft 372 kts 327°
2026-05-06 18:46 52.83418 -1.44358 16669 ft 371 kts 327°
2026-05-06 18:46 52.85599 -1.46592 16138 ft 368 kts 327°
2026-05-06 18:46 52.87766 -1.48813 15591 ft 365 kts 327°
2026-05-06 18:47 52.89879 -1.50980 15075 ft 362 kts 327°
2026-05-06 18:47 52.92016 -1.53172 14540 ft 360 kts 327°
2026-05-06 18:47 52.94135 -1.55350 14025 ft 357 kts 327°
2026-05-06 18:47 52.96239 -1.57521 13465 ft 355 kts 327°
2026-05-06 18:48 52.98324 -1.59678 12938 ft 351 kts 327°
2026-05-06 18:48 53.00386 -1.61811 12432 ft 347 kts 327°
2026-05-06 18:48 53.02427 -1.63922 11918 ft 344 kts 327°
2026-05-06 18:48 53.04441 -1.66040 11417 ft 342 kts 324°
2026-05-06 18:49 53.06229 -1.68613 10912 ft 339 kts 313°
2026-05-06 18:49 53.07740 -1.71526 10438 ft 337 kts 310°
2026-05-06 18:49 53.09261 -1.74482 9932 ft 336 kts 310°
2026-05-06 18:49 53.10774 -1.77412 9408 ft 332 kts 311°
2026-05-06 18:50 53.12270 -1.80308 9021 ft 325 kts 310°
2026-05-06 18:50 53.13711 -1.83103 8880 ft 311 kts 310°
2026-05-06 18:50 53.15086 -1.85776 8748 ft 297 kts 310°
2026-05-06 18:50 53.16401 -1.88336 8607 ft 285 kts 310°
2026-05-06 18:51 53.17665 -1.90801 8471 ft 274 kts 310°
2026-05-06 18:51 53.18860 -1.93133 8350 ft 263 kts 310°
2026-05-06 18:51 53.20025 -1.95411 8158 ft 255 kts 310°
2026-05-06 18:51 53.21156 -1.97622 8029 ft 247 kts 310°
2026-05-06 18:52 53.22266 -1.99793 8032 ft 245 kts 310°
2026-05-06 18:52 53.23372 -2.01960 8036 ft 247 kts 310°
2026-05-06 18:52 53.24434 -2.04198 8033 ft 246 kts 299°
2026-05-06 18:52 53.24869 -2.06933 8035 ft 248 kts 269°
2026-05-06 18:53 53.24661 -2.09803 7917 ft 250 kts 259°
2026-05-06 18:53 53.24232 -2.12556 7659 ft 247 kts 256°
2026-05-06 18:53 53.23759 -2.15301 7365 ft 245 kts 255°
2026-05-06 18:53 53.23285 -2.18043 7117 ft 245 kts 256°
2026-05-06 18:54 53.22806 -2.20769 6861 ft 246 kts 255°
2026-05-06 18:54 53.22323 -2.23499 6607 ft 244 kts 255°
2026-05-06 18:54 53.21842 -2.26212 6347 ft 243 kts 255°
2026-05-06 18:54 53.21364 -2.28917 6096 ft 243 kts 255°
2026-05-06 18:55 53.20891 -2.31612 5833 ft 241 kts 255°
2026-05-06 18:55 53.20420 -2.34288 5562 ft 240 kts 255°
2026-05-06 18:55 53.19962 -2.36933 5313 ft 241 kts 255°
2026-05-06 18:55 53.19512 -2.39610 5078 ft 236 kts 255°
2026-05-06 18:56 53.19084 -2.42221 4836 ft 231 kts 255°
2026-05-06 18:56 53.18678 -2.44774 4568 ft 222 kts 255°
2026-05-06 18:56 53.18298 -2.47209 4302 ft 212 kts 255°
2026-05-06 18:56 53.18086 -2.49576 4025 ft 204 kts 278°
2026-05-06 18:57 53.18664 -2.51605 3899 ft 192 kts 317°
2026-05-06 18:57 53.19816 -2.52688 3816 ft 192 kts 340°
2026-05-06 18:57 53.21086 -2.53202 3693 ft 190 kts
2026-05-06 18:57 53.22356 -2.52736 3533 ft 187 kts 29°
2026-05-06 18:58 53.23331 -2.51366 3331 ft 182 kts 53°
2026-05-06 18:58 53.24129 -2.49726 3097 ft 181 kts 53°
2026-05-06 18:58 53.24916 -2.48109 2848 ft 177 kts 53°
2026-05-06 18:58 53.25687 -2.46527 2600 ft 174 kts 54°
2026-05-06 18:59 53.26445 -2.44971 2377 ft 171 kts 54°
2026-05-06 18:59 53.27191 -2.43439 2134 ft 168 kts 54°
2026-05-06 18:59 53.27908 -2.41964 1911 ft 164 kts 54°
2026-05-06 18:59 53.28615 -2.40512 1704 ft 159 kts 54°
2026-05-06 19:00 53.29309 -2.39084 1469 ft 158 kts 54°
2026-05-06 19:00 53.29997 -2.37666 1252 ft 156 kts 54°
2026-05-06 19:00 53.30668 -2.36285 1020 ft 149 kts 53°
2026-05-06 19:00 53.31302 -2.34980 816 ft 143 kts 53°
2026-05-06 19:01 53.31920 -2.33695 670 ft 141 kts 53°
2026-05-06 19:01 53.32534 -2.32430 502 ft 143 kts 52°
2026-05-06 19:01 53.33158 -2.31145 293 ft 142 kts 52°
2026-05-06 19:01 53.33747 -2.29922 230 ft 118 kts 50°
2026-05-06 19:02 53.34155 -2.29084 232 ft 68 kts 51°
2026-05-06 19:02 53.34375 -2.28670 224 ft 35 kts 41°
2026-05-06 19:02 53.34539 -2.28514 228 ft 22 kts 21°
2026-05-06 19:02 53.34667 -2.28433 230 ft 18 kts 20°
2026-05-06 19:03 53.34755 -2.28311 230 ft 16 kts 52°
2026-05-06 19:03 53.34817 -2.28183 231 ft 14 kts 51°
2026-05-06 19:03 53.34896 -2.28014 229 ft 23 kts 50°
2026-05-06 19:03 53.35004 -2.27801 229 ft 25 kts 51°
2026-05-06 19:04 53.35109 -2.27573 234 ft 25 kts 53°
2026-05-06 19:04 53.35213 -2.27353 238 ft 23 kts 50°
2026-05-06 19:04 53.35309 -2.27196 242 ft 17 kts 23°
2026-05-06 19:04 53.35397 -2.27222 246 ft 12 kts 326°
2026-05-06 19:05 53.35455 -2.27298 248 ft 10 kts 321°
2026-05-06 19:05 53.35515 -2.27380 248 ft 13 kts 321°
2026-05-06 19:05 53.35599 -2.27491 245 ft 17 kts 321°
2026-05-06 19:05 53.35675 -2.27593 247 ft 13 kts 324°
2026-05-06 19:06 53.35743 -2.27649 249 ft 9 kts 339°
2026-05-06 19:06 53.35791 -2.27691 251 ft 10 kts 319°
2026-05-06 19:06 53.35853 -2.27806 253 ft 16 kts 314°
2026-05-06 19:06 53.35946 -2.27856 255 ft 13 kts 348°
2026-05-06 19:07 53.36015 -2.27936 255 ft 11 kts 317°
2026-05-06 19:07 53.36071 -2.28020 255 ft 10 kts 319°
2026-05-06 19:07 53.36123 -2.28094 255 ft 9 kts 318°
2026-05-06 19:07 53.36167 -2.28168 255 ft 10 kts 314°
2026-05-06 19:08 53.36231 -2.28277 255 ft 15 kts 314°
2026-05-06 19:08 53.36308 -2.28409 255 ft 17 kts 314°
2026-05-06 19:08 53.36381 -2.28479 255 ft 11 kts 346°
2026-05-06 19:08 53.36451 -2.28540 255 ft 12 kts 313°
2026-05-06 19:09 53.36512 -2.28618 255 ft 8 kts
2026-05-06 19:09 53.36541 -2.28576 255 ft 3 kts 44°
2026-05-06 19:09 53.36545 -2.28568 255 ft 1 kts 45°
2026-05-06 19:09 53.36548 -2.28563 255 ft 0 kts 45°